www.pogodaiklimat.ru

Погода и климат >> Архив погоды >> Мексика >> Сан-Луис-Потоси


ПОГОДА в Сан-Луис-Потоси

  • Прогноз погоды в Сан-Луис-Потоси
  • Монитор погоды в Сан-Луис-Потоси

АРХИВ ПОГОДЫ в Сан-Луис-Потоси

Время (UTC), дата Ветер
(напр.,м/с)
 
Видим.   Явления Облачность Т
(С)
Тd
(С)
f
(%)
Тe
(С)
Тes
(С)
Комфортность P
(гПа)
Po
(гПа)
Тmin
(С)
Tmax
(С)
R
(мм)
R24
(мм)
S
(см)
18 17.06 В 2
{2}
12 км мгла {туман} 3/3 840 м
[Cu med, cong]
+28.8 -5.6 10 +25 +40 комфорт 1009.5 814.6 +15.2 +29.3
21 17.06 СВ 4
{4}
10 км мгла {туман} 10/10 800 м
[St]
+25.7 +2.7 22 +24 +24 комфорт 1005.7 813.1 0.9
00 18.06 З 1
{1}
8000 м слаб. дождь 10/10 720 м
[St]
+21.0 +11.8 56 +24 +24 комфорт 1006.1 814.0 +15.2 +33.4 2
03 18.06 ЮВ 2
{2}
6000 м мгла {туман} 9/9 660 м
[Sc]
+21.5 +16.0 71 +25 +25 комфорт 1006.5 814.1
06 18.06 В 2 6000 м мгла {туман} 9/9 600 м
[Sc]
+20.0 +15.6 76 +23 +23 комфорт 1009.5 816.0 +33.4
12 18.06 С 1
{1}
8000 м 10/10 630 м
[St]
+16.4 +14.6 89 +17 +17 1012.2 815.9 +15.9 +33.4
15 18.06 В 1
{1}
10 км мгла {туман} 5/5 720 м
[Sc]
+23.7 +15.0 58 +27 +32 жарко 1012.8 816.6
18 18.06 СВ 1
{1}
12 км мгла {туман} 3/0
[Ci]
+28.6 +5.8 24 +27 +51 опасность
солнечного
удара
1011.3 816.3 +15.9 +28.9
21 18.06 З 2
{2}
12 км 1/0
[Ci sp]
+32.8 -7.0 7 +29 +44 жарко 1006.5 814.2
00 19.06 СВ 3
{3}
12 км 3/3 840 м
[Cu med, cong]
+29.4 -1.2 14 +27 +28 жарко 1002.2 812.8 +15.9 +33.0
03 19.06 ЮВ 3 8000 м ясно +22.1 +14.8 63 +25 +25 комфорт 1003.1 814.1
06 19.06 В 1 8000 м ясно +20.0 +14.0 68 +23 +23 комфорт 1005.7 815.4 +33.0
09 19.06 ЮВ 2
{2}
8000 м мгла {туман} 6/6 660 м
[Sc]
+18.6 +13.8 74 +20 +20 1008.9 816.4
12 19.06 штиль 0 10 км {туман} 1/0 2000 м
[As trans]
+14.7 +13.6 93 +14 +14 1011.0 815.8 +14.6 +33.0
15 19.06 С 2
{2}
12 км мгла {туман} 3/3 720 м
[Sc diur, vesp]
+24.3 +13.8 52 +27 +33 жарко 1012.8 816.7
18 19.06 СВ 1
{1}
12 км мгла {туман} 6/6 750 м
[Sc]
+27.8 +12.8 40 +29 +39 жарко 1010.9 815.9 +14.3 +28.2
21 19.06 СЗ 2
{2}
12 км мгла {туман} 9/9 840 м
[Sc]
+30.7 +3.7 18 +28 +30 жарко 1006.7 814.1
00 20.06 ЮВ 1
{1}
12 км 3/3 840 м
[Cu med, cong]
+30.2 +25 +27 комфорт 1002.4 812.8 +14.3 +32.7
03 20.06 В 2
{2}
10 км 9/9 700 м
[Sc]
+23.9 +15.9 61 +27 +27 жарко 1001.4 812.7
06 20.06 ЮВ 3 8000 м 9/9 700 м
[Sc]
+22.6 +16.0 66 +27 +27 душно 1001.9 813.0 +32.7
09 20.06 СЗ 1
{1}
6000 м мгла {туман} 10/10 660 м
[St]
+18.9 +14.0 73 +21 +21 комфорт 1006.6 814.9
12 20.06 СВ 2
{2}
8000 м мгла {туман} 9/9 600 м
[St]
+17.1 +13.3 78 +17 +17 1009.8 815.6 +17.0 +32.7
15 20.06 З 1
{1}
12 км мгла {туман} 10/10 720 м
[St]
+21.6 +13.0 58 +24 +24 комфорт 1012.2 816.6
18 20.06 В 2
{2}
12 км мгла {туман} 4/4 800 м
[Sc]
+28.8 +9.4 30 +29 +42 жарко 1010.1 815.5 +16.4 +28.9
21 20.06 В 2
{2}
12 км 4/4 840 м
[Sc diur, vesp]
+31.4 -0.5 13 +28 +38 жарко 1005.8 813.7
00 21.06 З 2
{2}
8000 м переохл. дождь (гололёд) 10/10 630 м
[St]
+19.1 +16.5 85 +21 +21 комфорт 1005.1 813.7 +16.4 +32.8 4
03 21.06 ЮВ 1
{1}
8000 м слаб. дождь 10/10 600 м
[St]
+15.0 +15.0 100 +15 +15 1008.2 815.7 14
06 21.06 ЮВ 2 8000 м слаб. дождь 10/10 600 м
[St]
+16.0 +16.0 100 +16 +16 1010.7 816.3 14
09 21.06 СЗ 1
{1}
6000 м мгла {туман} 9/9 600 м
[St]
+16.2 +14.9 92 +17 +17 1011.6 815.0
12 21.06 штиль 0 10 км мгла {туман} 3/3 600 м
[St]
+14.5 +13.7 95 +14 +14 1013.3 815.3 +14.5 +32.8
15 21.06 ЮВ 2
{2}
12 км мгла {туман} 3/3 700 м
[Sc diur, vesp]
+21.9 +15.7 68 +26 +32 душно 1014.0 816.3
18 21.06 Ю 2
{2}
12 км мгла {туман} 3/3 750 м
[Cu med, cong]
+28.3 +13.3 40 +30 +45 жарко 1011.5 815.8 +14.5 +28.3
21 21.06 СВ 1
{1}
10 км мгла {туман} 9/9 600 м
[St]
+19.0 +19.0 100 +22 +24 комфорт 1007.3 813.7 11
00 22.06 ЮВ 3
{3}
10 км слаб. дождь 10/10 660 м
[St]
+21.1 +17.1 78 +25 +25 комфорт 1007.3 814.5 +14.5 +30.8 11
03 22.06 З 1
{2}
8000 м морось 10/10 630 м
[St]
+17.0 +14.9 87 +18 +18 1009.2 815.8 2
12 22.06 штиль 0 10 км мгла {туман} 6/6 600 м
[Sc]
+15.4 +14.8 96 +15 +15 1012.5 815.3 +15.2 +30.8
15 22.06 ЮВ 2
{2}
12 км {туман} ясно +23.1 +15.1 61 +27 +36 душно 1013.0 816.1
18 22.06 В 2
{2}
12 км мгла {туман} ясно +27.0 +14.7 47 +30 +51 опасность
солнечного
удара
1011.3 815.9 +15.1 +27.3
21 22.06 С 1
{1}
12 км мгла {туман} 9/9 720 м
[Sc]
+27.8 +16.8 51 +31 +33 душно 1009.6 816.3
00 23.06 С 1
{1}
12 км дождь 10/10 600 м
[St]
+17.7 +17.7 100 +19 +19 1008.9 816.9 +15.1 +31.0 7
03 23.06 штиль 0 8000 м мгла {туман} 10/10 600 м
[St]
+18.2 +18.2 100 +19 +19 1006.7 814.9 0.4
06 23.06 В 2 8000 м мгла {туман} 10/10 600 м
[St]
+18.8 +17.2 90 +21 +21 комфорт 1009.7 816.2 0.4
12 23.06 штиль 0 8000 м мгла {дождь} 8/8 600 м
[Sc]
+15.3 +13.8 91 +15 +15 1013.1 816.1 +14.8 +31.0 7
15 23.06 ЮВ 2
{2}
12 км мгла {туман} 6/6 630 м
[Sc]
+18.5 +16.0 85 +20 +23 1013.6 816.2
18 23.06 С 1
{1}
12 км мгла {туман} 1/1 800 м
[Cu med, cong]
+28.1 +12.3 38 +29 +52 опасность
солнечного
удара
1010.2 815.2 +14.7 +28.7
21 23.06 В 2
{2}
12 км 3/3 870 м
[Cu med, cong]
+30.2 -4.4 10 +27 +38 жарко 1007.5 814.5
00 24.06 ЮВ 3
{3}
10 км гроза без осадков {туман} 10/10 750 м
[Frnb]
+24.9 +11.3 43 +26 +26 жарко 1004.2 813.0 +14.8 +30.9
03 24.06 В 2
{2}
8000 м {туман} 4/4 600 м
[Sc]
+21.0 +15.3 70 +25 +25 комфорт 1004.7 814.0
06 24.06 ЮВ 2 8000 м {туман} ясно +20.0 +17.2 84 +23 +23 комфорт 1006.9 815.0 +30.9
12 24.06 С 1
{1}
8000 м мгла {туман} 8/8 600 м
[Sc]
+16.5 +16.5 100 +17 +17 1011.8 816.2 +16.4 +30.9
15 24.06 ЮВ 1
{1}
10 км мгла {туман} ясно +23.7 +17.0 66 +27 +38 жарко 1012.0 816.0

 

Местоположение метеостанции Сан-Луис-Потоси (Мексика): широта 22.18 долгота -100.90 высота над уровнем моря 1883 м.

В архиве по умолчанию представлена погода в Сан-Луис-Потоси за последнюю неделю. Архивные данные за месяц целиком и за предыдущие месяцы, начиная с января 2011 года, Вы можете получить, выбрав интересующий диапазон дат из раскрывающегося списка и нажав кнопку "Ввод!".


*Определитесь, кто Вы:
робот инопланетянин человек

Внимание! Время в таблицах - всемирное. Для получения местного времени необходимо прибавить поправку, которая равна -6 ч.

Смотрите также архив погоды в соседних городах и на ближайших метеорологических станциях:

Погода в Рио-Верде (Мексика) (99 км)
Погода в Гуанахуато (Мексика) (135 км)
Погода в Лагос де Морено (Мексика) (140 км)
Погода в Агуаскальентесе (Мексика) (148 км)
Погода в Сакатекасе (Мексика) (177 км)
Погода в Керетаро (Мексика) (185 км)
Погода в Тамуине (Мексика) (221 км)
Погода в Маталапе (Мексика) (236 км)
Погода в Колотлане (Мексика) (244 км)
Погода в Сьюдад-Виктории (Мексика) (250 км)

Пояснения к столбцам:

Ветер - указаны скорость ветра в м/с - средняя за 10 мин, порывы в срок и между сроками (в фигурных скобках) и направление, откуда дует ветер: С - северный, СВ - северо-восточный, В - восточный, ЮВ - юго-восточный, Ю - южный, ЮЗ - юго-западный, З - западный, СЗ - северо-западный.
Видимость - горизонтальная дальность видимости в метрах или километрах. При видимости от 1 до 10 км при отсутствии осадков обычно наблюдается дымка, при ухудшении видимости до 1 км и менее - туман. В сухую погоду видимость может ухудшаться дымом, пылью или мглою.
Явления - указаны атмосферные явления, наблюдавшиеся в срок или в последний час перед сроком; фигурными скобками обозначены явления, наблюдавшиеся между сроками (за 1-3 часа до срока); квадратными скобками обозначены град или гололедные отложения с указанием их диаметра в мм.
Облачность - указаны через наклонную черту общая и нижняя облачность в баллах и высота нижней границы облаков в метрах; квадратными скобками обозначены формы облаков: Ci - перистые, Cs - перисто-слоистые, Cc - перисто-кучевые, Ac - высококучевые, As - высокослоистые, Sc - слоисто-кучевые, Ns - слоисто-дождевые, Cu - кучевые, Cb - кучево-дождевые. Подробнее классификацию облаков см. в Атласе облаков (PDF).
T - Температура воздуха - температура, измеренная на высоте 2 м над землей.
Td - Температура точки росы - температура, при понижении до которой содержащийся в воздухе водяной пар достигнет насыщения.
f - Относительная влажность воздуха - влажноcть воздуха, измеренная на высоте 2 м над землей.
Te - Эффективная температура - температура, которую ощущает одетый по сезону человек в тени. Характеристика душности погоды. При расчете учитывается влияние влажности воздуха и скорости ветра на теплоощущения человека.
Tes - Эффективная температура на солнце - температура, которую ощущает человек, с поправкой на солнечный нагрев. Характеристика знойности погоды. Зависит от высоты солнца над горизонтом, облачности и скорости ветра. Ночью, в пасмурную погоду, а также при ветре 12 м/с и более поправка равна нулю.
P - Атмосферное давление - приведенное к уровню моря атмосферное давление.
Po - Атмосферное давление - измеренное на уровне метеостанции атмосферное давление.
Tmin - Минимальная температура - минимум температуры воздуха на высоте 2 м над землей.
Tmax - Максимальная температура - максимум температуры воздуха на высоте 2 м над землей.
R - Количество осадков - Количество выпавших осадков за период времени, мм. При наведении курсора мыши на число - период времени, за который выпало указанное количество осадков.
R24 - Количество осадков - Количество выпавших осадков за 24 часа, мм.
S - Снежный покров - Высота снежного покрова, см. При наведении курсора мыши на число - состояние снежного покрова и степень покрытия местности в баллах.